Weather History for Stefansson Island, NT

Change the Weather History Date:

Thursday, April 11, 2013

  Actual Average Record
Temperature  
Mean Temperature 8 °F -  
Max Temperature 16 °F - - ()
Min Temperature -1 °F - - ()
Degree Days  
Heating Degree Days 56    
Moisture  
Dew Point 5 °F    
Average Humidity 85    
Maximum Humidity 91    
Minimum Humidity 73    
Precipitation  
Precipitation 0.00 in - - ()
Sea Level Pressure  
Sea Level Pressure 29.77 in    
Wind  
Wind Speed 25 mph ()    
Max Wind Speed 40 mph    
Max Gust Speed 46 mph    
T = Trace of Precipitation, MM = Missing Value Source: Averaged Metar Reports

Daily Weather History Graph

Daily Weather History Graph

Search for Another Location

Airport:

Trip Planner

Search our weather history database for the weather conditions in past years. The results will help you decide how hot, cold, wet, or windy it might be!

Date:

Astronomy

Apr. 11, 2013 Rise Set
Actual Time 4:44 AM MDT 9:23 PM MDT
Civil Twilight 2:52 AM MDT 11:22 PM MDT
Nautical Twilight Sun does not rise Sun does not rise
Astronomical Twilight Sun does not rise Sun does not rise
Moon 3:56 AM MDT (4/11) No Moon Set
Length of Visible Light 20h 30m
Length of Day
16h 38m
New Moon, 2% of the Moon is Illuminated
Apr 11
New Moon
Apr 18
First Quarter
Apr 25
Full
May 2
Last Quarter
May 9
New

Hourly Weather History & Observations

Time (MDT) Temp. Windchill Dew Point Humidity Pressure Visibility Wind Dir Wind Speed Gust Speed Precip Events Conditions
12:00 AM 8 °F - 5 °F 80% 29.68 in - SSE 39.1 mph - -  
12:00 AM 7.7 °F -17.8 °F 4.8 °F 88% 29.68 in - SSE 39.1 mph 46.0 mph N/A   Unknown
1:00 AM 7.5 °F -15.6 °F 4.8 °F 89% - - SSE 29.9 mph 36.8 mph N/A   Unknown
2:00 AM 7.3 °F -13.5 °F 4.8 °F 89% 29.70 in - SSE 23.0 mph - N/A   Unknown
3:00 AM 8.8 °F -13.6 °F 6.3 °F 89% 29.69 in - SSE 28.8 mph - N/A   Unknown
4:00 AM 8.6 °F -13.1 °F 6.1 °F 89% 29.69 in - SE 26.5 mph - N/A   Unknown
5:00 AM 8.6 °F -13.8 °F 6.1 °F 89% 29.68 in - SE 28.8 mph - N/A   Unknown
6:00 AM 9 °F - 7 °F 85% 29.67 in - SSE 29.9 mph - -  
6:00 AM 9.1 °F -13.4 °F 6.6 °F 89% 29.67 in - SSE 29.9 mph - N/A   Unknown
10:00 AM 13.1 °F -10.6 °F 10.9 °F 91% 29.65 in - South 40.3 mph 46.0 mph N/A   Unknown
11:00 AM 14.4 °F -8.0 °F 12.2 °F 91% 29.67 in - South 36.8 mph - N/A   Unknown
12:00 PM 16 °F - 14 °F 86% 29.69 in - South 28.8 mph - -  
12:00 PM 16.0 °F -3.8 °F 13.6 °F 90% 29.69 in - South 28.8 mph - N/A   Unknown
1:00 PM 16.7 °F -2.5 °F 14.0 °F 89% 29.70 in - South 27.6 mph 33.4 mph N/A   Unknown
2:00 PM 13.3 °F -4.8 °F 9.5 °F 85% 29.73 in - South 20.7 mph - N/A   Unknown
3:00 PM 10.4 °F -6.6 °F 6.3 °F 83% 29.77 in - South 16.1 mph 23.0 mph N/A   Unknown
4:00 PM 9.3 °F -11.7 °F 5.5 °F 85% 29.78 in - South 25.3 mph 32.2 mph N/A   Unknown
5:00 PM 8.4 °F -13.7 °F 5.5 °F 88% 29.79 in - SSW 27.6 mph 34.5 mph N/A   Unknown
6:00 PM 6 °F - 2 °F 73% 29.83 in - SW 24.2 mph - -  
6:00 PM 5.9 °F -15.9 °F 1.6 °F 82% 29.83 in - SW 24.2 mph - N/A   Unknown
7:00 PM 5.7 °F -9.1 °F 0.9 °F 80% 29.88 in - WSW 10.4 mph - N/A   Unknown
8:00 PM 4.3 °F -11.7 °F -1.7 °F 76% 29.92 in - West 11.5 mph - N/A   Unknown
9:00 PM 2.8 °F -9.5 °F -2.7 °F 78% 29.96 in - WSW 6.9 mph - N/A   Unknown
10:00 PM 1.2 °F -17.1 °F -5.4 °F 74% 29.99 in - SW 13.8 mph - N/A   Unknown
11:00 PM -1.8 °F -20.2 °F -7.2 °F 78% 30.03 in - SSW 12.7 mph - N/A   Unknown